CZ-6A DEB, 55008

Orbit data source: Space-Track

CZ-6A DEB, 55008 is space debris in SSO originally from a launch on Fri, 11 Nov 2022 UTC launched from the Taiyaun Space Center, China (TSC). Debris objects in space refer to the collection of defunct objects orbiting the Earth. Examples of debris include non-operational satellites, rocket bodies, and fragments generated from explosions, collisions, or faulty payload assembly.

Loading next visibility...
Identifier
55008, 2022-151UY
Orbit
SSO
Country
Flag of CNCN / PRC
Related business
Manufacturer
SAST
Mission
Spacecraft
Bus & Motor
Unknown
Mass
Unknown
Launch date (UTC)
2022-11-11 (4 years ago)
Launch vehicle
Unknown
Launch site
Taiyaun Space Center, China (TSC)
Object type
Payload
Rocket body
Debris
Shape & HBR
Unknown shape, 0.2 m
Radar Cross Section
Medium (>0.1 m² and <1 m²)

Expand to show TLE details & history
Last TLE update: 2 days ago

TLE from 2 days ago
0 CZ-6A DEB
1 55008U 22151UY  26170.97848769  .00000145  00000-0  10335-3 0  9998
2 55008  98.8452 176.3911 0040342 295.5920  64.1084 14.11555620185354
Epoch: 2026-06-19T23:29Z
TLE epoch observation values (Epoch: 2026-06-19T23:29:01.336Z)
Latitude
-0.00008°
Longitude
-84.06416°
Altitude
844.305 km
Speed
7.437 km/s
True Right ascension
11h 45m 33s
True Declination
0° 00' 00"
Sunlit
Object was in daylight at epoch
Visualization orbit readout
Latitude
Unknown
Longitude
Unknown
Altitude
Unknown
Speed
Unknown
Apparent Right ascension
Unknown
Apparent Declination
Unknown
Sunlit
N/A
Visualization observer readout
Local Sidereal Time
21:27:56
Azimuth
Unknown
Elevation
Unknown
Doppler factor
Unknown
Orbital elements
Apogee altitude
880.394 km
Perigee altitude
822.065 km
Semi-major axis
7,229.367 km
Eccentricity
0.00403
Inclination
98.8452°
RAAN
176.3911°
Arg. of periapsis
295.592°
True anomaly
64.5252°
Mean anomaly
64.1084°
Eccentric anomaly
64.31671°
Mean motion
3.53096 °/min
Orbital period
101.96 mins
BSTAR
0.00010335
Loading maneuver chart data...
Computing Atmospheric mass density...
Loading historical data...
Loading historical data...
Loading historical data...
Loading historical data...
Loading historical data...
Loading historical data...
Loading historical data...

Documentation

Showing up to 5 results
|